This is the latest recevied weather packets stored in our database for station/object KM5VY. If no packets are shown the sender has not sent any weather packets the latest 10 day(s).
| Time | Temp. | Humidity | Pressure | Rain* | Wind** | Luminosity | Snow |
|---|---|---|---|---|---|---|---|
| 1777860884 | 13.89° C | 43% | 1017.6 hPa | 0 mm | - | - | - |
| 1777860283 | 14.44° C | 43% | 1017.3 hPa | 0 mm | - | - | - |
| 1777859683 | 14.44° C | 41% | 1017.3 hPa | 0 mm | - | - | - |
| 1777859081 | 15° C | 40% | 1017.3 hPa | 0 mm | - | - | - |
| 1777858480 | 15° C | 37% | 1017.3 hPa | 0 mm | - | - | - |
| 1777857879 | 15.56° C | 35% | 1016.9 hPa | 0 mm | - | - | - |
| 1777857279 | 16.11° C | 35% | 1016.9 hPa | 0 mm | - | - | - |
| 1777856677 | 16.11° C | 34% | 1016.9 hPa | 0 mm | - | - | - |
| 1777856076 | 16.67° C | 34% | 1016.9 hPa | 0 mm | - | - | - |
| 1777855475 | 16.67° C | 33% | 1016.9 hPa | 0 mm | - | - | - |
| 1777854874 | 17.22° C | 32% | 1016.9 hPa | 0 mm | - | - | - |
| 1777854273 | 17.78° C | 32% | 1017.3 hPa | 0 mm | - | - | - |
| 1777853672 | 17.78° C | 32% | 1017.3 hPa | 0 mm | - | - | - |
| 1777853071 | 17.78° C | 31% | 1017.3 hPa | 0 mm | - | - | - |
| 1777852471 | 18.33° C | 30% | 1017.3 hPa | 0 mm | - | - | - |
| 1777851870 | 18.33° C | 29% | 1017.3 hPa | 0 mm | - | - | - |
| 1777851268 | 18.33° C | 28% | 1017.3 hPa | 0 mm | - | - | - |
| 1777850667 | 18.89° C | 28% | 1017.6 hPa | 0 mm | - | - | - |
| 1777850066 | 18.89° C | 27% | 1017.6 hPa | 0 mm | - | - | - |
| 1777849466 | 18.89° C | 27% | 1017.6 hPa | 0 mm | - | - | - |
| 1777848865 | 18.89° C | 27% | 1017.9 hPa | 0 mm | - | - | - |
| 1777848265 | 18.89° C | 27% | 1017.9 hPa | 0 mm | - | - | - |
| 1777847663 | 19.44° C | 27% | 1017.9 hPa | 0 mm | - | - | - |
| 1777847062 | 19.44° C | 27% | 1018.3 hPa | 0 mm | - | - | - |
| 1777846461 | 19.44° C | 27% | 1018.3 hPa | 0 mm | - | - | - |
* Rain latest hour (hover to see other rain measurements)
** Current wind speed in m/s (hover to see current wind gust speed)